Regional Weather Roundup
Issued by NWS Grand Forks, ND

Home | Current Version | Previous Version | Text Only | Print | Product List | Glossary Off
Versions: 1 2 3 4 5 6 7 8 9 10 11 12 13 14 15 16 17 18 19 20 21 22 23 24 25 26 27 28 29 30 31 32 33 34 35 36 37 38 39 40 41 42 43 44 45 46 47 48 49 50

000
ASUS43 KFGF 282331
RWRFGF
PRAIRIE TO PINES  WEATHER ROUNDUP
NATIONAL WEATHER SERVICE EASTERN NORTH DAKOTA/GRAND FORKS ND
600 PM CDT THU APR 28 2016

 **SATELLITE DATA USED TO AUGMENT SKY COVER AT AUTOMATED STATIONS**
 *****  WEATHER ACROSS EASTERN NORTH DAKOTA  *****

CITY           SKY/WX    TMP DP  RH WIND       PRES   REMARKS
GRAND FORKS    PTSUNNY   56  25  30 NE17      30.12R
GRAND FRKS AFB MOSUNNY   56  21  26 NE14      30.13R
DEVILS LAKE    MOSUNNY   53  19  26 E13       30.14S
FARGO          CLOUDY    60  22  23 NE8       30.06R
WAHPETON ARPT  CLOUDY    54  27  35 CALM      30.08R
$$

 ***** WEATHER ACROSS CENTRAL AND WESTERN NORTH DAKOTA  *****

CITY           SKY/WX    TMP DP  RH WIND       PRES   REMARKS
BISMARCK       CLOUDY    54  21  27 NE10      30.09S
MINOT          MOSUNNY   59  11  15 NE12      30.14R
JAMESTOWN      CLOUDY    54  22  28 E14       30.09R
MINOT AFB      PTSUNNY   56  14  19 E17       30.13R
GARRISON         N/A     55  18  23 E12       30.11S
WILLISTON      PTSUNNY   58  21  24 E10       30.13S
DICKINSON      CLOUDY    50  25  37 E9        30.08R
HETTINGER      CLOUDY    46  33  60 NE7       30.11R
$$

 *****  OTHER AIRPORT OBSERVATIONS IN OUR AREA  *****

CITY           SKY/WX    TMP DP  RH WIND       PRES   REMARKS
WALHALLA       FAIR      57  23  26 NE9G16    30.15S
GRAFTON AIRPOR FAIR      57  27  30 E9        30.15S
VALLEY CITY AR CLOUDY    52  23  32 NE13      30.11R
CANDO          FAIR      57  19  23 E12G20    30.16S
CAVALIER APRT  FAIR      57  25  28 E8        30.14S
GWINNER        FAIR      54  32  43 E12       30.07R
SHEYENNE NWR     N/A     56  23  28 E8        29.95S
ROLLA          FAIR      54  14  20 NE18      30.17S
 ***** THE ABOVE OBSERVATIONS ARE NON NWS ARE NOT QUALITY
       CONTROLLED AND MAY MIS-REPORT RAIN FOR SNOW...
$$

  *****  WEATHER ACROSS NORTHERN MINNESOTA  *****

CITY           SKY/WX    TMP DP  RH WIND       PRES   REMARKS
FLAG ISLAND    MOSUNNY   52  19  28 N13       30.15S
WARROAD        MOSUNNY   48  27  43 NE8       30.16S
ROSEAU         SUNNY     55  28  35 E14       30.15R
HALLOCK        SUNNY     61  16  17 E10       30.13S
THF RVR FALLS  MOSUNNY   54  23  30 NE14G20   30.13R
BAUDETTE       SUNNY     55  24  30 N13       30.12R
WASKISH        SUNNY     54  28  37 NE9       30.12R
CROOKSTON      MOSUNNY   57  27  30 NE10      30.11
STEPHEN NDAWN    N/A     57  27  30 E13         N/A
GREENBUSH NDAW   N/A     55  28  35 E12         N/A
$$
  *****  WEATHER ACROSS CENTRAL AND WEST MINNESOTA  *****

CITY           SKY/WX    TMP DP  RH WIND       PRES   REMARKS
FOSSTON        MOSUNNY   55  25  30 NE9G17    30.10R
BEMIDJI        CLOUDY    54  26  34 E8        30.09R
PARK RAPIDS    CLOUDY    54  22  28 NE12G17   30.06R
ELBOW LAKE     CLOUDY    46  38  73 W8        30.08R
WADENA         PTSUNNY   55  27  33 N7        30.04S
DETROIT LAKES  CLOUDY    54  25  32 NE7       30.07S
MOORHEAD       CLOUDY    57  21  24 E10       30.07S
FERGUS FALLS   CLOUDY    54  28  37 S6        30.05R
MORRIS MN      CLOUDY    45  39  81 MISG      30.07S
STAPLES        MOSUNNY   54  19  26 E6        30.05R
$$
  *****  WEATHER ELSEWHERE ACROSS MINNESOTA  *****

CITY           SKY/WX    TMP DP  RH WIND       PRES   REMARKS
DULUTH         PTSUNNY   41  25  53 E15       30.10R
INTRNTL FALLS  SUNNY     54  26  34 NE9       30.11S
ELY            SUNNY     52  25  35 NE7       30.09S
CLOQUET        MOSUNNY   45  21  39 E9G16     30.10S
WHEATON        CLOUDY    46  39  76 S6        30.11R
BRAINERD       CLOUDY    53  21  28 E7        30.06R
HIBBING        CLOUDY    53  25  33 N13       30.06S
ALEXANDRIA     CLOUDY    46  36  68 S8        30.07R
SAINT CLOUD    LGT RAIN  41  39  93 E3        30.07R
MINNEAPOLIS    LGT RAIN  41  36  82 NE8       30.07R
$$

  *****  WEATHER ACROSS SOUTH DAKOTA  *****

CITY           SKY/WX    TMP DP  RH WIND       PRES   REMARKS
SIOUX FALLS    CLOUDY    41  36  82 N9        30.05R
BROOKINGS      CLOUDY    37  34  87 NE5       30.06R
WATERTOWN      CLOUDY    38  34  85 NE12      30.05R
HURON          CLOUDY    42  37  82 NE10G24   30.07R
SISSETON         N/A     45  36  70 S9        30.07R
ABERDEEN       CLOUDY    52  33  48 NE14      30.06S
MITCHELL       LGT RAIN  42  39  89 N10       30.07R
PIERRE         CLOUDY    47  36  65 NE10      30.06R
MOBRIDGE       CLOUDY    53  35  50 SE9       30.04R
RAPID CITY     CLOUDY    39  34  82 NE10      30.08R
$$

  *****  SOME WEATHER IN NEARBY STATES *****

CITY           SKY/WX    TMP DP  RH WIND       PRES   REMARKS
GLASGOW MT     PTSUNNY   54  27  35 SE16      30.12R
GREAT FALLS MT CLOUDY    42  34  73 E14       30.08R
CHEYENNE WY    CLOUDY    35  32  88 SE7       29.97S
SCOTTSBLUFF NE RAIN      39  32  76 S8        30.05R
OMAHA NE       CLOUDY    49  42  77 N9        30.03R
DES MOINES IA  LGT RAIN  52  48  86 W14       29.96R FOG
DAVENPORT IA   CLOUDY    52  48  86 CALM      29.95R FOG
CHICAGO IL     CLOUDY    45  40  82 NE10      29.94S
EAU CLAIRE WI  LGT RAIN  41  37  86 NE8       30.05R
LA CROSSE WI   LGT RAIN  42  39  89 E9        30.02R
$$

  *****  SOME NATIONAL WEATHER *****

CITY           SKY/WX    TMP DP  RH WIND       PRES   REMARKS
LA GUARDIA NY  LGT RAIN  51  30  44 S12       30.04R
RALEIGH NC     CLOUDY    68  64  88 SE12      29.83F THUNDER
ATLANTA GA     MOSUNNY   82  56  40 SW9       29.93R
NEW ORLEANS LA PTSUNNY   81  74  79 SE9       29.91R
OKLAHOMA CITY  CLOUDY    75  52  44 E15       29.84F
ALBUQUERQUE NM MOSUNNY   72  12  10 S17G29    29.68F
SALT LAKE CITY CLOUDY    57  35  43 N14       29.75R
LOS ANGELES CA MOSUNNY   63  50  62 W12G21    29.86F
BOISE ID       SUNNY     67  32  27 NW25G35   29.78F
SEATTLE WA     CLOUDY    61  42  49 S9        30.10S
$$

*** WEATHER ACROSS MANITOBA...SASKATCHEWAN AND ONTARIO ***
                ***ONTARIO***

CITY           SKY/WX    TMP DP  RH WIND       PRES   REMARKS
GERALDTON      MOSUNNY   45  27  49 NE13      30.17R
THUNDER BAY    PTSUNNY   46  27  46 E10       30.15R
SIOUX LOOKOUT  PTSUNNY   48  28  46 NE3       30.16S
TORONTO        CLOUDY    45  23  42 E8        30.06R
BIG TROUT LK   CLOUDY    36  28  75 NE7       30.30S
PICKLE LAKE    CLOUDY    43  27  52 NE7       30.20S
DRYDEN         SUNNY     50  27  40 NE13G20   30.16R
KENORA         PTSUNNY   54  23  30 N13       30.16S
$$
                *** MANITOBA***

CITY           SKY/WX    TMP DP  RH WIND       PRES   REMARKS
BRANDON        PTSUNNY   54  14  20 E17G28    30.21R
DAUPHIN        SUNNY     57  16  19 NE13      30.24F
ISLAND LAKE    SUNNY     48  12  23 N10       30.31
PILOT MOUND      N/A     54   9  16 NE14G21     N/A
THE PAS        MOSUNNY   55  19  24 SE6       30.30F
THOMPSON       NOT AVBL
WINNIPEG       PTSUNNY   55  12  18 N21       30.19S
LYNN LAKE      MOSUNNY   61  25  25 S9        30.21F
CHURCHILL      PTSUNNY   30  23  74 E6        30.47S WCI  24
GILLAM         MOSUNNY   45  16  31 NE8       30.39S
$$
                ***SASKATCHEWAN***

CITY           SKY/WX    TMP DP  RH WIND       PRES   REMARKS
ESTEVAN        CLOUDY    57  14  18 E16G23    30.16R
KINDERSLEY     PTSUNNY   61  23  23 SE12G20   30.14S
LLOYDMINSTER   PTSUNNY   61  21  21 S8G18     30.13F
PRINCE ALBERT  MOSUNNY   61  23  23 SE9       30.21F
REGINA         PTSUNNY   59  18  20 E9G20     30.18R
YORKTON        SUNNY     59  19  21 E7        30.20S
N. BATTLEFORD  SUNNY     63  19  19 SE15      30.18F
LA RONGE       MOSUNNY   64  25  22 SE7       30.20
SASKATOON      PTSUNNY   63  21  20 E16       30.20F
SWIFT CURRENT  MOSUNNY   55  21  26 E16G23    30.13F
$$
NOTE: THESE ARE AUTOMATED STATIONS WITH LIMITED QUALITY CONTROL
      "FAIR" INDICATES FEW OR NO CLOUDS BELOW 12,000 FEET WITH NO
      SIGNIFICANT WEATHER AND/OR OBSTRUCTIONS TO VISIBILITY.
      SKY/WX - SKY CONDITION AND SIGNIFICANT WEATHER.
      TMP - AIR TEMPERATURE.    DP   - DEWPOINT TEMPERATURE.
      RH  - RELATIVE HUMIDITY.  PRES - PRESSURE.
      HX  - HEAT INDEX.         WCI  - WIND CHILL INDEX.
$




USA.gov is the U.S. government's official web portal to all federal, state and local government web resources and services.